Denver International Airport Denver US
ICAO: KDEN
IATA: DEN
Category: Large
Scheduled Services: Yes

Elevation: 5431 ft
TransAlt. 18000 ft.

Airport Communications:
APP:119.3
ATIS:125.6
CLNC DEL:118.75
DEP:126.1
GND:121.85
RDO:123.65
TWR:124.3
UNICOM:122.95

KDEN Zoom In..

Runways:

(A) RW 07 length 12000 ft width 150 ft
ILS 111.55 / hdg 83

(B) RW 08 length 12000 ft width 150 ft
ILS 108.90 / hdg 83

(C) RW 16L length 12000 ft width 150 ft
ILS 111.10 / hdg 173

(D) RW 16R length 16000 ft width 200 ft
ILS 111.90 / hdg 173

(E) RW 17L length 12000 ft width 150 ft
ILS 110.15 / hdg 173

(F) RW 17R length 12000 ft width 150 ft
ILS 108.50 / hdg 173

(G) RW 25 length 12000 ft width 150 ft
ILS 111.55 / hdg 263

(H) RW 26 length 12000 ft width 150 ft
ILS 108.90 / hdg 263

(I) RW 34L length 16000 ft width 200 ft
ILS 111.90 / hdg 353

(J) RW 34R length 12000 ft width 150 ft
ILS 111.10 / hdg 353

(K) RW 35L length 12000 ft width 150 ft
ILS 108.50 / hdg 353

(L) RW 35R length 12000 ft width 150 ft
ILS 110.15 / hdg 353

Location; KDEN
Day. 23 / Time. 21.53 Zulu
* Altimeter: 29.95
* Temperature: 26° c. 78.8°f.
* Wind from: 080° Speed 12 kn with Gusts up to 17 kn.
Dewpoint: 08° c.
Visibility: 10 Statute Miles.
Clouds: Scattered 1000 ft.
Clouds: Broken 14000 ft.
Clouds: Broken 25000 ft.

KDEN 232153Z 08012G17KT 10SM SCT100 BKN140 BKN250 26/08 A2995 RMK AO2 SLP072 T02610078


Wind From 080°
Speed 12 kn.

 
 
jpsmedia.com for Web Design SOUNDCLOUD worldairports.se 2018   terms of use